This is the latest recevied weather packets stored in our database for station/object WI0K. If no packets are shown the sender has not sent any weather packets the latest 10 day(s).
| Time | Temp. | Humidity | Pressure | Rain* | Wind** | Luminosity | Snow |
|---|---|---|---|---|---|---|---|
| 1777308159 | 2.78° C | 80% | 827.8 hPa | 0 mm | - | 328 W/m² | - |
| 1777307909 | 2.78° C | 80% | 827.8 hPa | 0 mm | - | 328 W/m² | - |
| 1777307858 | 2.78° C | 81% | 827.8 hPa | 0 mm | - | 399 W/m² | - |
| 1777307608 | 2.78° C | 81% | 827.8 hPa | 0 mm | - | 399 W/m² | - |
| 1777307308 | 2.78° C | 82% | 827.8 hPa | 0 mm | - | 338 W/m² | - |
| 1777307007 | 2.22° C | 83% | 827.8 hPa | 0 mm | - | 257 W/m² | - |
| 1777306957 | 2.22° C | 84% | 827.8 hPa | 0 mm | - | 259 W/m² | - |
| 1777306706 | 2.22° C | 84% | 827.8 hPa | 0 mm | - | 259 W/m² | - |
| 1777306406 | 2.22° C | 85% | 827.8 hPa | 0 mm | - | 257 W/m² | - |
| 1777306356 | 2.22° C | 86% | 827.7 hPa | 0 mm | - | 268 W/m² | - |
| 1777306105 | 2.22° C | 86% | 827.7 hPa | 0 mm | - | 268 W/m² | - |
| 1777305804 | 2.22° C | 88% | 827.6 hPa | 0 mm | - | 219 W/m² | - |
| 1777305504 | 2.22° C | 87% | 827.5 hPa | 0 mm | - | 196 W/m² | - |
| 1777305203 | 1.67° C | 88% | 827.5 hPa | 0 mm | - | 163 W/m² | - |
| 1777304902 | 1.67° C | 88% | 1013.7 hPa | 0 mm | - | 148 W/m² | - |
| 1777304602 | 1.67° C | 88% | 827.4 hPa | 0 mm | - | 152 W/m² | - |
| 1777304301 | 1.67° C | 88% | 827.4 hPa | 0 mm | - | 148 W/m² | - |
| 1777304000 | 1.67° C | 88% | 827.3 hPa | 0 mm | - | 146 W/m² | - |
| 1777303700 | 1.67° C | 88% | 827.2 hPa | 0 mm | - | 144 W/m² | - |
| 1777303399 | 1.67° C | 89% | 827.2 hPa | 0 mm | - | 109 W/m² | - |
| 1777303099 | 1.67° C | 89% | 1013.3 hPa | 0 mm | - | 94 W/m² | - |
| 1777302798 | 1.67° C | 89% | 827.1 hPa | 0 mm | - | 94 W/m² | - |
| 1777302497 | 1.67° C | 91% | 827 hPa | 0 mm | - | 92 W/m² | - |
| 1777302197 | 1.67° C | 91% | 827 hPa | 0 mm | - | 106 W/m² | - |
| 1777301896 | 1.67° C | 91% | 826.8 hPa | 0 mm | - | 105 W/m² | - |
* Rain latest hour (hover to see other rain measurements)
** Current wind speed in m/s (hover to see current wind gust speed)